Overview Statistics Trail Chart Weather Telemetry Raw packets
 

This is the latest recevied weather packets stored in our database for station/object LU3HGB-WX. If no packets are shown the sender has not sent any weather packets the latest 10 day(s).

<< 110 111 112 113 114 115 >>
Time Temp. Humidity Pressure Rain* Wind** Luminosity Snow
1787853760 20° C 46% 1004 hPa 0 mm - 716 W/m² -
1787853460 20° C 45% 1004 hPa 0 mm - 620 W/m² -
1787853163 20° C 45% 1004 hPa 0 mm - 624 W/m² -
1787852860 20° C 44% 1004 hPa 0 mm - 703 W/m² -
1787852562 20° C 45% 1005 hPa 0 mm - 738 W/m² -
1787852259 20° C 46% 1005 hPa 0 mm - 855 W/m² -
1787851961 20° C 46% 1005 hPa 0 mm - 627 W/m² -
1787851660 20.56° C 44% 1005 hPa 0 mm - 692 W/m² -
1787851359 20.56° C 45% 1005 hPa 0 mm - 674 W/m² -
1787851060 20.56° C 45% 1005 hPa 0 mm - 871 W/m² -
1787850760 20.56° C 44% 1005 hPa 0 mm - 628 W/m² -
1787850460 21.11° C 44% 1005 hPa 0 mm - 780 W/m² -
1787850160 20.56° C 44% 1005 hPa 0 mm - 670 W/m² -
1787849860 20.56° C 46% 1005 hPa 0 mm - 965 W/m² -
1787849567 20.56° C 46% 1005 hPa 0 mm - 400 W/m² -
1787849259 21.11° C 46% 1005 hPa 0 mm - 304 W/m² -
1787848960 21.11° C 44% 1005 hPa 0 mm - 441 W/m² -
1787848664 21.11° C 44% 1005 hPa 0 mm - 881 W/m² -
1787848359 20.56° C 48% 1005 hPa 0 mm - 860 W/m² -
1787848059 20.56° C 46% 1005 hPa 0 mm - 785 W/m² -
1787847760 20° C 46% 1005 hPa 0 mm - 882 W/m² -
1787847460 19.44° C 47% 1005 hPa 0 mm - 915 W/m² -
1787847160 18.89° C 48% 1005 hPa 0 mm - 775 W/m² -
1787846860 18.89° C 47% 1005 hPa 0 mm - 702 W/m² -
1787846562 18.33° C 48% 1005 hPa 0 mm - 789 W/m² -

* Rain latest hour (hover to see other rain measurements)
** Current wind speed in m/s (hover to see current wind gust speed)